• In Latvia
  • List of Countries
  • For 7 days
  • Water Temperature
  • Satellite Maps
  • Weather Map
  • Weather Widgets
  • user-avatar
    Login

    Hourly Weather Satif

    Today, 22 July, Saturday

    Time Temperature Precipitation Wind Pressure Humidity
    00:00 +27°C° 0 mm 1 mps 673 mmHg 50%
    01:00 +28°C° 0 mm 1 mps 673 mmHg 47%
    02:00 +28°C° 0 mm 1 mps 673 mmHg 45%
    03:00 +28°C° 0 mm 2 mps 673 mmHg 43%
    04:00 +28°C° 0 mm 2 mps 674 mmHg 40%
    05:00 +29°C° 0 mm 2 mps 674 mmHg 37%
    06:00 +29°C° 0 mm 2 mps 674 mmHg 35%
    07:00 +31°C° 0 mm 3 mps 675 mmHg 30%
    08:00 +34°C° 0 mm 4 mps 676 mmHg 26%
    09:00 +36°C° 0 mm 4 mps 676 mmHg 21%
    10:00 +37°C° 0 mm 5 mps 676 mmHg 19%
    11:00 +39°C° 0 mm 5 mps 677 mmHg 18%
    12:00 +40°C° 0 mm 6 mps 677 mmHg 16%
    13:00 +40°C° 0 mm 6 mps 677 mmHg 16%
    14:00 +40°C° 0 mm 6 mps 677 mmHg 16%
    15:00 +40°C° 0 mm 5 mps 676 mmHg 16%
    16:00 +39°C° 0.1 mm 5 mps 676 mmHg 18%
    17:00 +37°C° 0.1 mm 5 mps 676 mmHg 20%
    18:00 +35°C° 0.1 mm 5 mps 676 mmHg 22%
    19:00 +35°C° 0 mm 5 mps 676 mmHg 23%
    20:00 +34°C° 0 mm 4 mps 677 mmHg 23%
    21:00 +34°C° 0 mm 3 mps 677 mmHg 24%
    22:00 +34°C° 0 mm 3 mps 677 mmHg 24%
    23:00 +34°C° 0 mm 3 mps 677 mmHg 23%

    Tomorrow, 23 July, Sunday

    Time Temperature Precipitation Wind Pressure Humidity
    00:00 +33°C° 0 mm 4 mps 677 mmHg 23%
    01:00 +33°C° 0 mm 4 mps 677 mmHg 23%
    02:00 +33°C° 0 mm 4 mps 677 mmHg 23%
    03:00 +33°C° 0 mm 4 mps 677 mmHg 23%
    04:00 +33°C° 0 mm 4 mps 677 mmHg 23%
    05:00 +33°C° 0 mm 4 mps 677 mmHg 23%
    06:00 +33°C° 0 mm 3 mps 677 mmHg 23%
    07:00 +35°C° 0 mm 4 mps 678 mmHg 21%
    08:00 +36°C° 0 mm 5 mps 678 mmHg 19%
    09:00 +37°C° 0 mm 5 mps 679 mmHg 17%
    10:00 +39°C° 0 mm 5 mps 679 mmHg 15%
    11:00 +40°C° 0 mm 5 mps 679 mmHg 14%
    12:00 +41°C° 0 mm 5 mps 679 mmHg 13%
    13:00 +41°C° 0 mm 5 mps 678 mmHg 13%
    14:00 +41°C° 0 mm 4 mps 678 mmHg 14%
    15:00 +41°C° 0 mm 4 mps 677 mmHg 14%
    16:00 +40°C° 0 mm 4 mps 677 mmHg 17%
    17:00 +38°C° 0 mm 4 mps 677 mmHg 19%
    18:00 +37°C° 0 mm 4 mps 677 mmHg 21%
    19:00 +36°C° 0 mm 4 mps 676 mmHg 24%
    20:00 +35°C° 0 mm 3 mps 676 mmHg 28%
    21:00 +33°C° 0 mm 3 mps 676 mmHg 31%
    22:00 +33°C° 0 mm 3 mps 676 mmHg 31%
    23:00 +33°C° 0 mm 3 mps 676 mmHg 31%

    Day after tomorrow, 24 July, Monday

    Time Temperature Precipitation Wind Pressure Humidity
    00:00 +31°C° 0 mm 2 mps 676 mmHg 31%
    01:00 +31°C° 0 mm 3 mps 676 mmHg 32%
    02:00 +31°C° 0 mm 3 mps 675 mmHg 32%
    03:00 +30°C° 0 mm 4 mps 675 mmHg 32%
    04:00 +30°C° 0 mm 3 mps 675 mmHg 36%
    05:00 +29°C° 0 mm 3 mps 675 mmHg 39%
    06:00 +28°C° 0 mm 2 mps 675 mmHg 43%
    07:00 +29°C° 0 mm 3 mps 675 mmHg 41%
    08:00 +30°C° 0 mm 3 mps 675 mmHg 39%
    09:00 +31°C° 0 mm 3 mps 675 mmHg 37%
    10:00 +33°C° 0 mm 4 mps 675 mmHg 34%
    11:00 +34°C° 0 mm 4 mps 675 mmHg 32%
    12:00 +36°C° 0 mm 5 mps 675 mmHg 29%
    13:00 +35°C° 0 mm 5 mps 675 mmHg 31%
    14:00 +35°C° 0 mm 6 mps 675 mmHg 32%
    15:00 +35°C° 0 mm 6 mps 674 mmHg 34%
    16:00 +33°C° 0 mm 6 mps 674 mmHg 41%
    17:00 +30°C° 0 mm 5 mps 674 mmHg 48%
    18:00 +29°C° 0 mm 5 mps 673 mmHg 55%
    19:00 +27°C° 0 mm 4 mps 673 mmHg 60%
    20:00 +26°C° 0 mm 4 mps 673 mmHg 65%
    21:00 +25°C° 0 mm 3 mps 674 mmHg 70%
    22:00 +24°C° 0 mm 3 mps 673 mmHg 72%
    23:00 +23°C° 0 mm 2 mps 673 mmHg 73%

    25 July, Tuesday

    Time Temperature Precipitation Wind Pressure Humidity
    00:00 +23°C° 0 mm 2 mps 673 mmHg 75%
    01:00 +21°C° 0 mm 2 mps 673 mmHg 75%
    02:00 +21°C° 0 mm 2 mps 672 mmHg 76%
    03:00 +20°C° 0 mm 2 mps 672 mmHg 76%
    04:00 +20°C° 0 mm 2 mps 672 mmHg 75%
    05:00 +20°C° 0 mm 2 mps 672 mmHg 73%
    06:00 +20°C° 0 mm 2 mps 672 mmHg 71%
    07:00 +23°C° 0 mm 2 mps 673 mmHg 62%
    08:00 +24°C° 0 mm 2 mps 673 mmHg 53%
    09:00 +26°C° 0 mm 2 mps 673 mmHg 43%
    10:00 +27°C° 0 mm 2 mps 673 mmHg 39%
    11:00 +29°C° 0 mm 2 mps 674 mmHg 35%
    12:00 +30°C° 0 mm 2 mps 674 mmHg 31%
    13:00 +30°C° 0 mm 3 mps 674 mmHg 31%
    14:00 +31°C° 0 mm 3 mps 673 mmHg 31%
    15:00 +32°C° 0 mm 4 mps 673 mmHg 31%
    16:00 +30°C° 0 mm 4 mps 673 mmHg 36%
    17:00 +29°C° 0 mm 4 mps 672 mmHg 41%
    18:00 +28°C° 0 mm 4 mps 672 mmHg 46%
    19:00 +27°C° 0 mm 4 mps 672 mmHg 51%
    20:00 +25°C° 0 mm 3 mps 672 mmHg 56%
    21:00 +24°C° 0 mm 3 mps 672 mmHg 61%
    22:00 +24°C° 0 mm 2 mps 672 mmHg 63%
    23:00 +23°C° 0 mm 2 mps 672 mmHg 64%

    26 July, Wednesday

    Time Temperature Precipitation Wind Pressure Humidity
    00:00 +23°C° 0 mm 2 mps 672 mmHg 65%
    01:00 +21°C° 0 mm 2 mps 672 mmHg 67%
    02:00 +21°C° 0 mm 2 mps 671 mmHg 69%
    03:00 +21°C° 0 mm 2 mps 671 mmHg 70%
    04:00 +21°C° 0 mm 1 mps 672 mmHg 70%
    05:00 +21°C° 0 mm 1 mps 672 mmHg 71%
    06:00 +21°C° 0 mm 1 mps 672 mmHg 71%
    07:00 +23°C° 0 mm 1 mps 673 mmHg 62%
    08:00 +25°C° 0 mm 1 mps 673 mmHg 53%
    09:00 +26°C° 0 mm 1 mps 674 mmHg 45%
    10:00 +28°C° 0 mm 2 mps 674 mmHg 40%
    11:00 +29°C° 0 mm 3 mps 674 mmHg 34%
    12:00 +31°C° 0 mm 3 mps 674 mmHg 29%
    13:00 +31°C° 0 mm 3 mps 674 mmHg 28%
    14:00 +33°C° 0 mm 4 mps 674 mmHg 27%
    15:00 +33°C° 0 mm 4 mps 673 mmHg 26%
    16:00 +32°C° 0 mm 4 mps 673 mmHg 29%
    17:00 +30°C° 0 mm 4 mps 673 mmHg 33%
    18:00 +30°C° 0 mm 4 mps 673 mmHg 36%
    19:00 +28°C° 0 mm 3 mps 673 mmHg 41%
    20:00 +27°C° 0 mm 3 mps 673 mmHg 46%
    21:00 +26°C° 0 mm 2 mps 673 mmHg 51%
    22:00 +26°C° 0 mm 2 mps 673 mmHg 52%
    23:00 +25°C° 0 mm 2 mps 673 mmHg 52%

    27 July, Thursday

    Time Temperature Precipitation Wind Pressure Humidity
    00:00 +25°C° 0 mm 1 mps 672 mmHg 53%
    01:00 +25°C° 0 mm 1 mps 672 mmHg 54%
    02:00 +24°C° 0 mm 1 mps 672 mmHg 56%
    03:00 +24°C° 0 mm 1 mps 672 mmHg 57%
    04:00 +24°C° 0 mm 1 mps 673 mmHg 56%
    05:00 +24°C° 0 mm 1 mps 673 mmHg 56%
    06:00 +24°C° 0 mm 1 mps 673 mmHg 55%
    07:00 +26°C° 0 mm 1 mps 674 mmHg 49%
    08:00 +27°C° 0 mm 1 mps 674 mmHg 43%
    09:00 +28°C° 0 mm 2 mps 675 mmHg 36%
    10:00 +29°C° 0 mm 2 mps 675 mmHg 32%
    11:00 +31°C° 0 mm 3 mps 675 mmHg 28%
    12:00 +33°C° 0 mm 3 mps 676 mmHg 24%
    13:00 +33°C° 0 mm 4 mps 676 mmHg 23%
    14:00 +34°C° 0 mm 4 mps 675 mmHg 22%
    15:00 +34°C° 0 mm 5 mps 675 mmHg 22%
    16:00 +33°C° 0 mm 5 mps 675 mmHg 24%
    17:00 +32°C° 0 mm 4 mps 675 mmHg 26%
    18:00 +30°C° 0 mm 4 mps 675 mmHg 28%
    19:00 +29°C° 0 mm 3 mps 675 mmHg 30%
    20:00 +28°C° 0 mm 3 mps 675 mmHg 32%
    21:00 +27°C° 0 mm 2 mps 675 mmHg 34%
    22:00 +27°C° 0 mm 2 mps 675 mmHg 35%
    23:00 +26°C° 0 mm 1 mps 675 mmHg 35%
    Show more